Weather History for Shemya, AK

Change the Weather History Date:

Monday, November 19, 2012

  Actual Average Record
Temperature  
Mean Temperature 39 °F -  
Max Temperature 44 °F 38 °F 46 °F (2006)
Min Temperature 34 °F 31 °F 21 °F (1971)
Degree Days  
Heating Degree Days 26    
Moisture  
Dew Point 38 °F    
Average Humidity 89    
Maximum Humidity 100    
Minimum Humidity 68    
Precipitation  
Precipitation 0.00 in - - ()
Sea Level Pressure  
Sea Level Pressure 29.58 in    
Wind  
Wind Speed 33 mph (SE)    
Max Wind Speed 44 mph    
Max Gust Speed 54 mph    
Visibility 8 miles    
Events Rain    
Averages and records for this station are not official NWS values.
T = Trace of Precipitation, MM = Missing Value Source: NWS Daily Summary

Daily Weather History Graph

Daily Weather History Graph

Search for Another Location

Airport:

Trip Planner

Search our weather history database for the weather conditions in past years. The results will help you decide how hot, cold, wet, or windy it might be!

Date:

Astronomy

Nov. 18, 2012 Rise Set
Actual Time 9:52 AM HAST 6:24 PM HAST
Civil Twilight 9:14 AM HAST 7:03 PM HAST
Nautical Twilight 8:31 AM HAST 7:45 PM HAST
Astronomical Twilight 7:51 AM HAST 8:26 PM HAST
Moon 2:45 PM HAST (11/19) 12:16 AM HAST (11/19)
Length of Visible Light 9h 49m
Length of Day
8h 31m
Waxing Crescent, 43% of the Moon is Illuminated
Nov 19
Waxing Crescent
Nov 20
First Quarter
Nov 28
Full
Dec 6
Last Quarter
Dec 12
New

Hourly Weather History & Observations

Time (HAST) Temp. Windchill Dew Point Humidity Pressure Visibility Wind Dir Wind Speed Gust Speed Precip Events Conditions
12:56 AM 39.9 °F 27.8 °F 36.0 °F 86% 29.90 in 10.0 mi East 33.4 mph 39.1 mph N/A   Overcast
1:56 AM 41.0 °F 29.1 °F 35.1 °F 79% 29.86 in 10.0 mi East 34.5 mph 42.6 mph N/A   Overcast
2:56 AM 41.0 °F 29.1 °F 36.0 °F 82% 29.80 in 10.0 mi East 34.5 mph 43.7 mph N/A   Overcast
3:56 AM 41.0 °F 29.0 °F 36.0 °F 82% 29.74 in 10.0 mi East 35.7 mph 46.0 mph N/A   Overcast
4:40 AM 39.2 °F 26.1 °F 37.4 °F 93% 29.69 in 6.2 mi East 38.0 mph 44.9 mph N/A Rain Light Rain
4:49 AM 41.0 °F 29.3 °F 37.4 °F 87% 29.68 in 6.2 mi East 33.4 mph 44.9 mph N/A   Overcast
4:56 AM 39.9 °F 27.5 °F 37.9 °F 93% 29.68 in 9.0 mi East 35.7 mph 47.2 mph N/A Rain Light Rain
5:06 AM 39.2 °F 26.3 °F 39.2 °F 100% 29.66 in 10.0 mi East 36.8 mph 48.3 mph N/A Rain Light Rain
5:16 AM 39.2 °F 26.1 °F 39.2 °F 100% 29.65 in 10.0 mi East 38.0 mph 46.0 mph N/A   Overcast
6:56 AM 39.9 °F 27.1 °F 39.0 °F 97% 29.59 in 6.0 mi East 38.0 mph 48.3 mph N/A Rain Light Rain
7:10 AM 39.2 °F 25.7 °F 39.2 °F 100% 29.59 in 5.0 mi East 41.4 mph 47.2 mph N/A Rain Light Rain
7:49 AM 39.2 °F 26.3 °F 39.2 °F 100% 29.55 in 6.0 mi East 36.8 mph 51.8 mph N/A Rain Light Rain
7:56 AM 39.9 °F 27.0 °F 39.0 °F 97% 29.55 in 6.0 mi East 39.1 mph 49.5 mph N/A Rain Light Rain
8:38 AM 39.2 °F 25.5 °F 39.2 °F 100% 29.53 in 6.2 mi East 42.6 mph 50.6 mph N/A Rain Light Rain
8:56 AM 39.9 °F 26.4 °F 39.9 °F 100% 29.52 in 6.0 mi East 43.7 mph 49.5 mph N/A Rain Light Rain
9:56 AM 39.9 °F 26.8 °F 39.2 °F 97% 29.49 in 5.0 mi East 40.3 mph 51.8 mph N/A Rain Light Rain
10:48 AM 41.0 °F 28.2 °F 41.0 °F 100% 29.47 in 5.0 mi East 41.4 mph 51.8 mph N/A   Overcast
10:56 AM 41.0 °F 28.8 °F 41.0 °F 100% 29.47 in 6.0 mi East 36.8 mph 54.1 mph N/A   Overcast
11:25 AM 41.0 °F 28.3 °F 41.0 °F 100% 29.45 in 2.5 mi East 40.3 mph 47.2 mph N/A   Overcast
11:29 AM 41.0 °F 28.6 °F 41.0 °F 100% 29.45 in 1.8 mi ESE 38.0 mph 47.2 mph N/A   Overcast
11:40 AM 41.0 °F 28.6 °F 41.0 °F 100% 29.45 in 1.8 mi ESE 38.0 mph 46.0 mph N/A   Overcast
11:52 AM 41.0 °F 28.6 °F 41.0 °F 100% 29.44 in 2.5 mi ESE 38.0 mph 44.9 mph N/A   Overcast
11:56 AM 41.0 °F 29.7 °F 41.0 °F 100% 29.44 in 3.0 mi ESE 31.1 mph 43.7 mph N/A   Overcast
12:08 PM 42.8 °F 32.7 °F 41.0 °F 93% 29.44 in 4.0 mi ESE 27.6 mph 44.9 mph N/A Rain Light Rain
12:35 PM 42.8 °F 32.5 °F 41.0 °F 93% 29.45 in 2.5 mi ESE 28.8 mph 38.0 mph N/A Rain Light Rain
12:46 PM 42.8 °F 34.8 °F 41.0 °F 93% 29.44 in 5.0 mi South 17.3 mph 38.0 mph N/A Rain Light Rain
12:52 PM 42.8 °F 34.0 °F 41.0 °F 93% 29.45 in 6.2 mi South 20.7 mph - N/A Rain Light Rain
12:56 PM 42.1 °F 31.3 °F 41.0 °F 96% 29.45 in 10.0 mi SSW 29.9 mph 36.8 mph N/A Rain Light Rain
1:03 PM 42.8 °F 33.5 °F 42.8 °F 100% 29.45 in 10.0 mi SSW 23.0 mph 36.8 mph N/A   Overcast
1:44 PM 42.8 °F 33.1 °F 39.2 °F 87% 29.46 in 10.0 mi South 25.3 mph - N/A   Mostly Cloudy
1:56 PM 44.1 °F 35.2 °F 39.0 °F 82% 29.47 in 10.0 mi South 23.0 mph - N/A   Overcast
2:08 PM 42.8 °F 33.8 °F 39.2 °F 87% 29.46 in 6.2 mi South 21.9 mph - N/A   Overcast
2:56 PM 43.0 °F 33.5 °F 39.9 °F 89% 29.49 in 10.0 mi South 24.2 mph - N/A   Overcast
3:56 PM 42.1 °F 32.1 °F 37.9 °F 85% 29.53 in 8.0 mi SW 25.3 mph 34.5 mph N/A   Overcast
4:10 PM 42.8 °F 33.5 °F 37.4 °F 81% 29.53 in 6.2 mi SSW 23.0 mph 27.6 mph N/A   Overcast
4:45 PM 42.8 °F 33.1 °F 35.6 °F 76% 29.55 in 10.0 mi SSW 25.3 mph 33.4 mph N/A   Mostly Cloudy
4:56 PM 43.0 °F 34.0 °F 37.0 °F 80% 29.55 in 10.0 mi SSW 21.9 mph - N/A   Overcast
5:14 PM 42.8 °F 32.9 °F 35.6 °F 76% 29.57 in 10.0 mi SSW 26.5 mph 38.0 mph N/A   Scattered Clouds
5:56 PM 41.0 °F 31.9 °F 36.0 °F 82% 29.60 in 10.0 mi SSW 19.6 mph - N/A   Scattered Clouds
6:56 PM 42.1 °F 31.7 °F 35.1 °F 76% 29.63 in 10.0 mi SSW 27.6 mph 32.2 mph N/A   Clear
7:56 PM 41.0 °F 30.9 °F 34.0 °F 76% 29.67 in 10.0 mi SSW 24.2 mph - N/A   Mostly Cloudy
8:56 PM 41.0 °F 30.9 °F 34.0 °F 76% 29.70 in 10.0 mi SSW 24.2 mph 41.4 mph N/A   Mostly Cloudy
9:56 PM 41.0 °F 31.4 °F 35.1 °F 79% 29.73 in 10.0 mi SSW 21.9 mph - N/A   Overcast
10:13 PM 39.2 °F 28.3 °F 33.8 °F 81% 29.74 in 10.0 mi SSW 25.3 mph 34.5 mph N/A Rain Light Rain
10:49 PM 39.2 °F 28.7 °F 35.6 °F 87% 29.75 in 6.2 mi SSW 23.0 mph - N/A   Overcast
10:56 PM 39.9 °F 28.8 °F 37.0 °F 89% 29.75 in 10.0 mi SSW 27.6 mph 31.1 mph N/A   Overcast
11:56 PM 41.0 °F 29.8 °F 32.0 °F 70% 29.77 in 10.0 mi SSW 29.9 mph - N/A   Overcast